Time,TemperatureF,DewpointF,PressureIn,WindDirection,WindDirectionDegrees,WindSpeedMPH,WindSpeedGustMPH,Humidity,HourlyPrecipIn,Conditions,Clouds,dailyrainin,SoftwareType,DateUTC
2013-03-20 00:01:00,42.0,35.0,30.19,West,270,0.0,0.0,77,-99.99,,,-99.99,,2013-03-20 07:01:00,
2013-03-20 00:11:00,42.0,35.0,30.19,West,270,0.0,0.0,77,-99.99,,,-99.99,,2013-03-20 07:11:00,
2013-03-20 00:21:00,43.0,37.0,30.18,West,270,0.0,0.0,79,-99.99,,,-99.99,,2013-03-20 07:21:00,
2013-03-20 00:31:00,43.0,37.0,30.18,West,270,0.0,0.0,78,-99.99,,,-99.99,,2013-03-20 07:31:00,
2013-03-20 00:41:00,43.0,37.0,30.18,West,270,0.0,0.0,78,-99.99,,,-99.99,,2013-03-20 07:41:00,
2013-03-20 00:52:00,44.0,37.0,30.19,West,270,0.0,0.0,77,-99.99,,,-99.99,,2013-03-20 07:52:00,
2013-03-20 01:01:00,44.0,38.0,30.18,West,270,0.0,0.0,78,-99.99,,,-99.99,,2013-03-20 08:01:00,
2013-03-20 01:11:00,44.0,38.0,30.18,West,270,0.0,0.0,78,-99.99,,,-99.99,,2013-03-20 08:11:00,
2013-03-20 01:21:00,44.0,38.0,30.17,West,270,0.0,0.0,79,-99.99,,,-99.99,,2013-03-20 08:21:00,
2013-03-20 01:32:00,45.0,39.0,30.16,West,270,0.0,0.0,79,-99.99,,,-99.99,,2013-03-20 08:32:00,
2013-03-20 01:41:00,45.0,39.0,30.16,West,270,0.0,0.0,79,-99.99,,,-99.99,,2013-03-20 08:41:00,
2013-03-20 01:52:00,45.0,39.0,30.15,West,270,0.0,0.0,78,-99.99,,,-99.99,,2013-03-20 08:52:00,
2013-03-20 02:01:00,45.0,39.0,30.13,West,270,0.0,0.0,78,-99.99,,,-99.99,,2013-03-20 09:01:00,
2013-03-20 02:11:00,45.0,39.0,30.13,West,270,0.0,0.0,78,-99.99,,,-99.99,,2013-03-20 09:11:00,
2013-03-20 02:22:00,46.0,39.0,30.14,West,270,0.0,0.0,77,-99.99,,,-99.99,,2013-03-20 09:22:00,
2013-03-20 02:32:00,46.0,39.0,30.12,West,270,0.0,0.0,77,-99.99,,,-99.99,,2013-03-20 09:32:00,
2013-03-20 02:42:00,46.0,39.0,30.12,West,270,0.0,0.0,77,-99.99,,,-99.99,,2013-03-20 09:42:00,
2013-03-20 02:52:00,47.0,39.0,30.10,West,270,0.0,0.0,75,-99.99,,,-99.99,,2013-03-20 09:52:00,
2013-03-20 03:02:00,47.0,39.0,30.10,West,270,0.0,0.0,75,-99.99,,,-99.99,,2013-03-20 10:02:00,
2013-03-20 03:12:00,47.0,39.0,30.10,West,270,0.0,0.0,75,-99.99,,,-99.99,,2013-03-20 10:12:00,
2013-03-20 03:22:00,47.0,39.0,30.09,West,270,0.0,0.0,74,-99.99,,,-99.99,,2013-03-20 10:22:00,
2013-03-20 03:32:00,47.0,39.0,30.09,West,270,0.0,0.0,74,-99.99,,,-99.99,,2013-03-20 10:32:00,
2013-03-20 03:42:00,47.0,39.0,30.09,West,270,0.0,0.0,74,-99.99,,,-99.99,,2013-03-20 10:42:00,
2013-03-20 03:53:00,47.0,39.0,30.09,West,270,0.0,0.0,74,-99.99,,,-99.99,,2013-03-20 10:53:00,
2013-03-20 04:02:00,47.0,39.0,30.09,West,270,0.0,0.0,74,-99.99,,,-99.99,,2013-03-20 11:02:00,
2013-03-20 04:11:00,47.0,39.0,30.09,West,270,0.0,0.0,74,-99.99,,,-99.99,,2013-03-20 11:11:00,
2013-03-20 04:22:00,47.0,39.0,30.08,West,270,0.0,0.0,75,-99.99,,,-99.99,,2013-03-20 11:22:00,
2013-03-20 04:31:00,47.0,40.0,30.07,West,270,0.0,0.0,76,-99.99,,,-99.99,,2013-03-20 11:31:00,
2013-03-20 04:42:00,47.0,40.0,30.07,West,270,0.0,0.0,76,-99.99,,,-99.99,,2013-03-20 11:42:00,
2013-03-20 04:51:00,47.0,40.0,30.06,West,270,0.0,0.0,77,-99.99,,,-99.99,,2013-03-20 11:51:00,
2013-03-20 05:02:00,47.0,41.0,30.06,West,270,0.0,0.0,78,-99.99,,,-99.99,,2013-03-20 12:02:00,
2013-03-20 05:11:00,47.0,41.0,30.06,West,270,0.0,0.0,78,-99.99,,,-99.99,,2013-03-20 12:11:00,
2013-03-20 05:21:00,47.0,41.0,30.05,West,270,0.0,0.0,79,-99.99,,,-99.99,,2013-03-20 12:21:00,
2013-03-20 05:31:00,47.0,41.0,30.03,West,270,0.0,0.0,81,-99.99,,,-99.99,,2013-03-20 12:31:00,
2013-03-20 05:42:00,47.0,41.0,30.03,West,270,0.0,0.0,81,-99.99,,,-99.99,,2013-03-20 12:42:00,
2013-03-20 05:52:00,48.0,42.0,30.04,West,270,0.0,0.0,80,-99.99,,,-99.99,,2013-03-20 12:52:00,
2013-03-20 06:01:00,48.0,42.0,30.03,West,270,0.0,0.0,80,-99.99,,,-99.99,,2013-03-20 13:01:00,
2013-03-20 06:11:00,48.0,42.0,30.03,West,270,0.0,0.0,80,-99.99,,,-99.99,,2013-03-20 13:11:00,
2013-03-20 06:22:00,48.0,42.0,30.02,West,270,0.0,0.0,81,-99.99,,,-99.99,,2013-03-20 13:22:00,
2013-03-20 06:31:00,48.0,42.0,30.02,West,270,0.0,0.0,81,-99.99,,,-99.99,,2013-03-20 13:31:00,
2013-03-20 06:41:00,48.0,42.0,30.02,West,270,0.0,0.0,81,-99.99,,,-99.99,,2013-03-20 13:41:00,
2013-03-20 06:52:00,48.0,42.0,29.99,West,270,0.0,0.0,81,-99.99,,,-99.99,,2013-03-20 13:52:00,
2013-03-20 07:01:00,48.0,42.0,30.00,West,270,0.0,0.0,81,-99.99,,,-99.99,,2013-03-20 14:01:00,
2013-03-20 07:11:00,48.0,42.0,30.00,West,270,0.0,0.0,81,-99.99,,,-99.99,,2013-03-20 14:11:00,
2013-03-20 07:21:00,48.0,42.0,30.00,West,270,0.0,0.0,81,-99.99,,,-99.99,,2013-03-20 14:21:00,
2013-03-20 07:32:00,48.0,42.0,29.99,West,270,0.0,0.0,81,-99.99,,,-99.99,,2013-03-20 14:32:00,
2013-03-20 07:42:00,48.0,42.0,29.99,West,270,0.0,0.0,81,-99.99,,,-99.99,,2013-03-20 14:42:00,
2013-03-20 07:52:00,48.0,43.0,30.01,West,270,0.0,0.0,82,-99.99,,,-99.99,,2013-03-20 14:52:00,
2013-03-20 08:02:00,48.0,43.0,29.99,West,270,0.0,0.0,82,-99.99,,,-99.99,,2013-03-20 15:02:00,
2013-03-20 08:12:00,49.0,44.0,29.99,West,270,0.0,0.0,82,-99.99,,,-99.99,,2013-03-20 15:12:00,
2013-03-20 08:21:00,49.0,44.0,29.99,West,270,0.0,0.0,82,-99.99,,,-99.99,,2013-03-20 15:21:00,
2013-03-20 08:32:00,49.0,44.0,29.99,West,270,0.0,0.0,82,-99.99,,,-99.99,,2013-03-20 15:32:00,
2013-03-20 08:42:00,49.0,44.0,29.99,West,270,0.0,0.0,82,-99.99,,,-99.99,,2013-03-20 15:42:00,
2013-03-20 08:52:00,49.0,44.0,29.98,West,270,0.0,0.0,82,-99.99,,,-99.99,,2013-03-20 15:52:00,
2013-03-20 09:02:00,49.0,44.0,29.98,West,270,0.0,0.0,82,-99.99,,,-99.99,,2013-03-20 16:02:00,
2013-03-20 09:12:00,49.0,44.0,29.98,West,270,0.0,0.0,82,-99.99,,,-99.99,,2013-03-20 16:12:00,
2013-03-20 09:22:00,50.0,44.0,30.02,West,270,0.0,0.0,81,-99.99,,,-99.99,,2013-03-20 16:22:00,
2013-03-20 09:32:00,50.0,44.0,29.99,West,270,0.0,0.0,80,-99.99,,,-99.99,,2013-03-20 16:32:00,
2013-03-20 09:42:00,50.0,44.0,29.99,West,270,0.0,0.0,80,-99.99,,,-99.99,,2013-03-20 16:42:00,
2013-03-20 09:52:00,49.0,43.0,30.02,West,270,0.0,0.0,80,-99.99,,,-99.99,,2013-03-20 16:52:00,
2013-03-20 10:02:00,48.0,41.0,30.03,West,270,0.0,0.0,78,-99.99,,,-99.99,,2013-03-20 17:02:00,
2013-03-20 10:11:00,48.0,41.0,30.03,West,270,0.0,0.0,78,-99.99,,,-99.99,,2013-03-20 17:11:00,
2013-03-20 10:21:00,48.0,41.0,30.05,West,270,0.0,0.0,77,-99.99,,,-99.99,,2013-03-20 17:21:00,
2013-03-20 10:32:00,50.0,42.0,30.06,West,270,0.0,0.0,75,-99.99,,,-99.99,,2013-03-20 17:32:00,
2013-03-20 10:42:00,50.0,42.0,30.06,West,270,0.0,0.0,75,-99.99,,,-99.99,,2013-03-20 17:42:00,
2013-03-20 10:52:00,51.0,42.0,30.09,West,270,0.0,0.0,71,-99.99,,,-99.99,,2013-03-20 17:52:00,
2013-03-20 11:01:00,51.0,42.0,30.09,West,270,0.0,0.0,71,-99.99,,,-99.99,,2013-03-20 18:01:00,
2013-03-20 11:11:00,51.0,42.0,30.09,West,270,0.0,0.0,71,-99.99,,,-99.99,,2013-03-20 18:11:00,
2013-03-20 11:21:00,52.0,42.0,30.11,West,270,0.0,0.0,68,-99.99,,,-99.99,,2013-03-20 18:21:00,
2013-03-20 11:32:00,52.0,41.0,30.12,West,270,0.0,0.0,67,-99.99,,,-99.99,,2013-03-20 18:32:00,
2013-03-20 11:42:00,52.0,41.0,30.12,West,270,0.0,0.0,67,-99.99,,,-99.99,,2013-03-20 18:42:00,
2013-03-20 11:52:00,53.0,42.0,30.11,West,270,0.0,0.0,65,-99.99,,,-99.99,,2013-03-20 18:52:00,
2013-03-20 12:01:00,53.0,41.0,30.12,West,270,0.0,0.0,64,-99.99,,,-99.99,,2013-03-20 19:01:00,
2013-03-20 12:11:00,53.0,41.0,30.12,West,270,0.0,0.0,64,-99.99,,,-99.99,,2013-03-20 19:11:00,
2013-03-20 12:21:00,53.0,41.0,30.16,West,270,0.0,0.0,64,-99.99,,,-99.99,,2013-03-20 19:21:00,
2013-03-20 12:31:00,53.0,41.0,30.17,West,270,0.0,0.0,63,-99.99,,,-99.99,,2013-03-20 19:31:00,
2013-03-20 12:42:00,53.0,41.0,30.17,West,270,0.0,0.0,63,-99.99,,,-99.99,,2013-03-20 19:42:00,
2013-03-20 12:53:00,51.0,39.0,30.18,West,270,0.0,0.0,63,-99.99,,,-99.99,,2013-03-20 19:53:00,
2013-03-20 13:01:00,49.0,38.0,30.19,West,270,0.0,0.0,65,-99.99,,,-99.99,,2013-03-20 20:01:00,
2013-03-20 13:12:00,49.0,38.0,30.19,West,270,0.0,0.0,65,-99.99,,,-99.99,,2013-03-20 20:12:00,
2013-03-20 13:22:00,48.0,38.0,30.20,West,270,0.0,0.0,69,-99.99,,,-99.99,,2013-03-20 20:22:00,
2013-03-20 13:31:00,49.0,39.0,30.20,West,270,0.0,0.0,69,-99.99,,,-99.99,,2013-03-20 20:31:00,
2013-03-20 13:42:00,49.0,39.0,30.20,West,270,0.0,0.0,69,-99.99,,,-99.99,,2013-03-20 20:42:00,
2013-03-20 13:52:00,50.0,40.0,30.20,West,270,0.0,0.0,68,-99.99,,,-99.99,,2013-03-20 20:52:00,
2013-03-20 14:01:00,50.0,40.0,30.20,West,270,0.0,0.0,68,-99.99,,,-99.99,,2013-03-20 21:01:00,
2013-03-20 14:11:00,50.0,40.0,30.20,West,270,0.0,0.0,68,-99.99,,,-99.99,,2013-03-20 21:11:00,
2013-03-20 14:22:00,52.0,41.0,30.21,West,270,0.0,0.0,65,-99.99,,,-99.99,,2013-03-20 21:22:00,
2013-03-20 14:32:00,51.0,40.0,30.22,West,270,0.0,0.0,65,-99.99,,,-99.99,,2013-03-20 21:32:00,
2013-03-20 14:42:00,51.0,40.0,30.22,West,270,0.0,0.0,65,-99.99,,,-99.99,,2013-03-20 21:42:00,
2013-03-20 14:52:00,51.0,40.0,30.20,West,270,0.0,0.0,65,-99.99,,,-99.99,,2013-03-20 21:52:00,
2013-03-20 15:02:00,51.0,39.0,30.16,West,270,0.0,0.0,64,-99.99,,,-99.99,,2013-03-20 22:02:00,
2013-03-20 15:12:00,51.0,39.0,30.16,West,270,0.0,0.0,64,-99.99,,,-99.99,,2013-03-20 22:12:00,
2013-03-20 15:22:00,51.0,39.0,30.22,West,270,0.0,0.0,64,-99.99,,,-99.99,,2013-03-20 22:22:00,
2013-03-20 15:32:00,51.0,39.0,30.22,West,270,0.0,0.0,64,-99.99,,,-99.99,,2013-03-20 22:32:00,
2013-03-20 15:42:00,51.0,39.0,30.22,West,270,0.0,0.0,64,-99.99,,,-99.99,,2013-03-20 22:42:00,
2013-03-20 15:52:00,50.0,38.0,30.24,West,270,0.0,0.0,64,-99.99,,,-99.99,,2013-03-20 22:52:00,
2013-03-20 16:01:00,50.0,38.0,30.25,West,270,0.0,0.0,64,-99.99,,,-99.99,,2013-03-20 23:01:00,
2013-03-20 16:11:00,50.0,38.0,30.25,West,270,0.0,0.0,64,-99.99,,,-99.99,,2013-03-20 23:11:00,
2013-03-20 16:22:00,51.0,39.0,30.28,West,270,0.0,0.0,64,-99.99,,,-99.99,,2013-03-20 23:22:00,
2013-03-20 16:31:00,51.0,39.0,30.27,West,270,0.0,0.0,63,-99.99,,,-99.99,,2013-03-20 23:31:00,
2013-03-20 16:42:00,51.0,39.0,30.27,West,270,0.0,0.0,63,-99.99,,,-99.99,,2013-03-20 23:42:00,
2013-03-20 16:52:00,51.0,38.0,30.29,West,270,0.0,0.0,61,-99.99,,,-99.99,,2013-03-20 23:52:00,
2013-03-20 17:01:00,51.0,38.0,30.31,West,270,0.0,0.0,61,-99.99,,,-99.99,,2013-03-21 00:01:00,
2013-03-20 17:11:00,51.0,38.0,30.31,West,270,0.0,0.0,61,-99.99,,,-99.99,,2013-03-21 00:11:00,
2013-03-20 17:22:00,52.0,39.0,30.31,West,270,0.0,0.0,61,-99.99,,,-99.99,,2013-03-21 00:22:00,
2013-03-20 17:32:00,51.0,38.0,30.32,West,270,0.0,0.0,62,-99.99,,,-99.99,,2013-03-21 00:32:00,
2013-03-20 17:41:00,51.0,38.0,30.32,West,270,0.0,0.0,62,-99.99,,,-99.99,,2013-03-21 00:41:00,
2013-03-20 17:52:00,50.0,37.0,30.32,West,270,0.0,0.0,61,-99.99,,,-99.99,,2013-03-21 00:52:00,
2013-03-20 18:02:00,50.0,38.0,30.32,West,270,0.0,0.0,62,-99.99,,,-99.99,,2013-03-21 01:02:00,
2013-03-20 18:11:00,50.0,38.0,30.32,West,270,0.0,0.0,62,-99.99,,,-99.99,,2013-03-21 01:11:00,
2013-03-20 18:21:00,49.0,37.0,30.31,West,270,0.0,0.0,62,-99.99,,,-99.99,,2013-03-21 01:21:00,
2013-03-20 18:32:00,48.0,36.0,30.33,West,270,0.0,0.0,62,-99.99,,,-99.99,,2013-03-21 01:32:00,
2013-03-20 18:41:00,48.0,36.0,30.33,West,270,0.0,0.0,62,-99.99,,,-99.99,,2013-03-21 01:41:00,
2013-03-20 18:52:00,47.0,35.0,30.36,West,270,0.0,0.0,63,-99.99,,,-99.99,,2013-03-21 01:52:00,
2013-03-20 19:01:00,47.0,35.0,30.37,West,270,0.0,0.0,63,-99.99,,,-99.99,,2013-03-21 02:01:00,
2013-03-20 19:11:00,47.0,35.0,30.37,West,270,0.0,0.0,63,-99.99,,,-99.99,,2013-03-21 02:11:00,
2013-03-20 19:22:00,46.0,34.0,30.36,West,270,0.0,0.0,63,-99.99,,,-99.99,,2013-03-21 02:22:00,
2013-03-20 19:32:00,44.0,32.0,30.38,West,270,0.0,0.0,62,-99.99,,,-99.99,,2013-03-21 02:32:00,
2013-03-20 19:41:00,44.0,32.0,30.38,West,270,0.0,0.0,62,-99.99,,,-99.99,,2013-03-21 02:41:00,
2013-03-20 19:51:00,44.0,32.0,30.38,West,270,0.0,0.0,62,-99.99,,,-99.99,,2013-03-21 02:51:00,
2013-03-20 20:02:00,41.0,30.0,30.38,West,270,0.0,0.0,65,-99.99,,,-99.99,,2013-03-21 03:02:00,
2013-03-20 20:11:00,41.0,30.0,30.38,West,270,0.0,0.0,65,-99.99,,,-99.99,,2013-03-21 03:11:00,
2013-03-20 20:21:00,40.0,29.0,30.42,West,270,0.0,0.0,65,-99.99,,,-99.99,,2013-03-21 03:21:00,
2013-03-20 20:32:00,40.0,30.0,30.43,West,270,0.0,0.0,66,-99.99,,,-99.99,,2013-03-21 03:32:00,
2013-03-20 20:42:00,40.0,30.0,30.43,West,270,0.0,0.0,66,-99.99,,,-99.99,,2013-03-21 03:42:00,
2013-03-20 20:53:00,39.0,29.0,30.45,West,270,0.0,0.0,68,-99.99,,,-99.99,,2013-03-21 03:53:00,
2013-03-20 21:02:00,39.0,29.0,30.47,West,270,0.0,0.0,68,-99.99,,,-99.99,,2013-03-21 04:02:00,
2013-03-20 21:12:00,39.0,29.0,30.47,West,270,0.0,0.0,68,-99.99,,,-99.99,,2013-03-21 04:12:00,
2013-03-20 21:22:00,39.0,30.0,30.48,West,270,0.0,0.0,69,-99.99,,,-99.99,,2013-03-21 04:22:00,
2013-03-20 21:32:00,39.0,30.0,30.50,West,270,0.0,0.0,70,-99.99,,,-99.99,,2013-03-21 04:32:00,
2013-03-20 21:43:00,39.0,30.0,30.50,West,270,0.0,0.0,70,-99.99,,,-99.99,,2013-03-21 04:43:00,
2013-03-20 21:53:00,39.0,30.0,30.52,West,270,0.0,0.0,69,-99.99,,,-99.99,,2013-03-21 04:53:00,
2013-03-20 22:02:00,39.0,30.0,30.53,West,270,0.0,0.0,69,-99.99,,,-99.99,,2013-03-21 05:02:00,
2013-03-20 22:12:00,39.0,30.0,30.53,West,270,0.0,0.0,69,-99.99,,,-99.99,,2013-03-21 05:12:00,
2013-03-20 22:21:00,39.0,30.0,30.54,West,270,0.0,0.0,69,-99.99,,,-99.99,,2013-03-21 05:21:00,
2013-03-20 22:32:00,39.0,30.0,30.55,West,270,0.0,0.0,69,-99.99,,,-99.99,,2013-03-21 05:32:00,
2013-03-20 22:43:00,39.0,29.0,30.56,West,270,0.0,0.0,68,-99.99,,,-99.99,,2013-03-21 05:43:00,
2013-03-20 22:52:00,39.0,29.0,30.56,West,270,0.0,0.0,68,-99.99,,,-99.99,,2013-03-21 05:52:00,
2013-03-20 23:02:00,39.0,29.0,30.57,West,270,0.0,0.0,67,-99.99,,,-99.99,,2013-03-21 06:02:00,
2013-03-20 23:11:00,39.0,29.0,30.57,West,270,0.0,0.0,67,-99.99,,,-99.99,,2013-03-21 06:11:00,
2013-03-20 23:22:00,39.0,29.0,30.58,West,270,0.0,0.0,68,-99.99,,,-99.99,,2013-03-21 06:22:00,
2013-03-20 23:32:00,38.0,29.0,30.59,West,270,0.0,0.0,69,-99.99,,,-99.99,,2013-03-21 06:32:00,
2013-03-20 23:41:00,38.0,29.0,30.59,West,270,0.0,0.0,69,-99.99,,,-99.99,,2013-03-21 06:41:00,
2013-03-20 23:51:00,38.0,29.0,30.58,West,270,0.0,0.0,69,-99.99,,,-99.99,,2013-03-21 06:51:00,